Location: Berlise
(49.6641°N, 4.1077°E)
Time: 19:08:07
(UTC+00:00)

H-2A R/B - Pass Details

Date: 27 January 2021
Orbit: 504 x 534 km, 97.3° (Epoch: 25 February)

Event Time Altitude Azimuth Distance (km) Brightness Sun altitude
Rises 05:21:58 0° 13° (NNE) 2,638 6.4 -19.4°
Reaches altitude 10° 05:24:04 10° 14° (NNE) 1,751 5.5 -19.1°
Maximum altitude 05:27:51 83° 103° (ESE) 528 2.7 -18.5°
Drops below altitude 10° 05:31:38 10° 192° (SSW) 1,753 5.3 -17.9°
Sets 05:33:44 0° 193° (SSW) 2,642 6.3 -17.5°
